This demonstration page uses our WeatherBlox Daily Observations layout. Learn more.

Left ArrowRight Arrow

Hourly Observations for November 16, 2018

Temp ( °F °C ) Dew Point ( °F °C ) Humidity (%) Winds ( mph kmh ) Pressure ( in mb ) Visibility ( mi km ) Precip ( " mm )
12:52 am 00:52 Clear 37 2.8 31 -0.6 79 79 W 7 11 30.06 1018 10 16 0.00 0.00
1:52 am 01:52 Clear 35 1.7 30 -1.1 82 82 WNW 8 13 30.06 1018 10 16 0.00 0.00
2:52 am 02:52 Clear 35 1.7 30 -1.1 82 82 NNW 5 7 30.07 1018 10 16 0.00 0.00
3:10 am 03:10 Mostly Cloudy 36 2.2 31 -0.6 82 82 NW 7 11 30.12 1020 10 16 0.00 0.00
3:52 am 03:52 Partly Cloudy 36 2.2 31 -0.6 82 82 W 9 15 30.06 1018 10 16 0.00 0.00
4:52 am 04:52 Clear 35 1.7 30 -1.1 82 82 W 9 15 30.07 1018 10 16 0.00 0.00
5:52 am 05:52 Mostly Clear 32 0 28 -2.2 85 85 W 7 11 30.09 1019 10 16 0.00 0.00
6:52 am 06:52 Mostly Clear 32 0 28 -2.2 85 85 NW 5 7 30.09 1019 10 16 0.00 0.00
7:52 am 07:52 Mostly Sunny 33 0.6 29 -1.7 85 85 Calm 30.10 1019 10 16 0.00 0.00
8:52 am 08:52 Mostly Sunny 36 2.2 30 -1.1 79 79 S 5 7 30.12 1020 10 16 0.00 0.00
9:52 am 09:52 Mostly Sunny 41 5 31 -0.6 67 67 WNW 5 7 30.11 1020 10 16 0.00 0.00
10:52 am 10:52 Partly Cloudy 45 7.2 33 0.6 63 63 NNE 3 6 30.10 1019 10 16 0.00 0.00
11:52 am 11:52 Partly Cloudy 47 8.3 33 0.6 59 59 SSE 6 9 30.06 1018 10 16 0.00 0.00
12:52 pm 12:52 Partly Cloudy 50 10 34 1.1 54 54 S 10 17 30.01 1016 10 16 0.00 0.00
1:52 pm 13:52 Partly Cloudy 52 11.1 34 1.1 50 50 S 6 9 29.99 1016 10 16 0.00 0.00
2:52 pm 14:52 Mostly Sunny 53 11.7 34 1.1 48 48 SE 13 20 29.96 1014 10 16 0.00 0.00
3:52 pm 15:52 Partly Cloudy 54 12.2 34 1.1 47 47 SSE 17 28 29.94 1014 10 16 0.00 0.00
4:52 pm 16:52 Partly Cloudy 51 10.6 34 1.1 52 52 SSE 12 19 29.94 1014 10 16 0.00 0.00
5:52 pm 17:52 Partly Cloudy 47 8.3 34 1.1 61 61 SSE 9 15 29.96 1015 10 16 0.00 0.00
6:52 pm 18:52 Partly Cloudy 46 7.8 34 1.1 63 63 SSE 5 7 29.97 1015 10 16 0.00 0.00
7:52 pm 19:52 Mostly Cloudy 44 6.7 34 1.1 68 68 SE 6 9 29.98 1015 10 16 0.00 0.00
8:52 pm 20:52 Cloudy 44 6.7 35 1.7 71 71 SSE 7 11 29.97 1015 10 16 0.00 0.00
9:52 pm 21:52 Cloudy 45 7.2 34 1.1 66 66 ENE 5 7 29.99 1016 10 16 0.00 0.00
10:52 pm 22:52 Cloudy 45 7.2 34 1.1 66 66 ESE 12 19 29.99 1016 10 16 0.00 0.03
11:52 pm 23:52 Cloudy 44 6.7 34 1.1 68 68 S 6 9 29.99 1016 10 16 0.00 0.00

Powered by AerisWeather